Location: Engelmannsreuth
(49.8125°N, 11.6497°E)
Time: 08:29:51
(UTC+00:00)

Cosmos 1666 Rocket - Pass Details

Date: 17 February 2020
Orbit: 603 x 634 km, 82.5° (Epoch: 09 April)

Event Time Altitude Azimuth Distance (km) Brightness Sun altitude
Rises 05:43:31 0° 345° (NNW) 2,937 6.8 -6.7°
Reaches altitude 10° 05:45:49 10° 341° (NNW) 2,020 5.9 -6.3°
Maximum altitude 05:50:08 50° 266° (W) 804 3.8 -5.7°
Drops below altitude 10° 05:54:24 10° 192° (SSW) 1,987 6.2 -5.0°
Sets 05:56:38 0° 187° (S) 2,883 7.1 -4.6°
